User: anonymous   Login
Location: Theydon Bois
(51.6750°N, 0.1050°E)
Time: 05:30:37
(UTC+00:00)
Language:

YAOGAN 6 - Orbit

View from above orbital plane
View from above orbital plane
View from above satellite
View from above satellite

Ground track
Ground track

The orbit data is extracted from the following two-line orbital elements,

1 34839U 09021A   18051.48500822  .00000525  00000-0  22828-4 0  9991
2 34839  97.1107  95.5390 0029280 156.0584 204.2024 15.26052151490459
Epoch (UTC): 20 February 2018 11:38:24
Eccentricity: 0.0029280
inclination: 97.1107°
perigee height: 467 km
apogee height: 508 km
right ascension of ascending node: 95.5390°
argument of perigee: 156.0584°
revolutions per day: 15.26052151
mean anomaly at epoch: 204.2024°
orbit number at epoch: 49045

The dashed part of the orbit path shows where the satellite is in the earth's shadow,  

DLR